COSMOS 1133

导读 | 豆包AI

**COSMOS 1133卫星摘要** COSMOS 1133是独联体(CIS,前身苏联)于1979年9月25日发射的人造卫星,隶属于苏联“宇宙”(COSMOS)卫星系列。该系列多承担军事侦察、电子情报收集等机密航天任务,是冷战时期苏联空间情报体系的重要组成。作为近地轨道任务卫星,它延续了“宇宙”系列标准化设计与任务模式,服役结束后最终陨落再入大气层销毁,其发射体现了苏联在冷战期间稳步推进航天侦察能力建设。(119字)

基本信息
目录编号:
11541
目录名称:
COSMOS 1133
国际标识:
1979-084D
轨道中心:
EARTH
卫星名称:
COSMOS 1133
卫星全名:
--
卫星状态:
在轨 (已飞行17020 天)
发射日期:
1979-09-25 UTC
国别 :
俄罗斯(独联体) (CIS)
星等 :
--
轨道信息
数据来源 国际轨道数据
星历时间: 2026-05-01T07:49:54+0800
4小时前
查看轨道信息
半长轴: 7838.941km
偏心率: 0.002759
轨道倾角: 74.027°
近地点辐角 79.755°
升交点赤经 351.616°
平近点角 24.873°
近地点: 1439.176km
远地点: 1482.432km
周期: 115.119分钟
每日圈数: 12.50883
详细信息
使用方式:
暂无
2D轨道图
3D轨道图
轨道高度分析图
轨道倾角分析图
轨道综合分析图
查看轨道综合分析图